Terminal Aerodrome Forecast
Issued by NWS

Home | Current Version | Previous Version | Text Only | Print | Product List | Glossary On
Versions: 1 2 3 4 5 6 7 8 9 10 11 12 13 14 15 16
000
FTUS44 KLZK 270500
TAFBPK
TAF
KBPK 270522Z 2706/2806 32009KT P6SM SCT025
     FM270700 33008KT P6SM OVC025
     FM271700 VRB05KT P6SM SCT030 BKN080
     FM280200 17004KT P6SM SKC=

USA.gov is the U.S. government's official web portal to all federal, state and local government web resources and services.